Location: Albany
(35.0170°S, 117.8920°E)
Time: 02:14:51
(UTC+08:00)

Vanguard 1 - Pass Details

Date: 01 February 2021
Orbit: 649 x 3833 km, 34.2° (Epoch: 25 February)

Event Time Altitude Azimuth Distance (km) Brightness Sun altitude
Rises 21:35:01 0° 313° (NW) 6,766 14.4 -24.7°
Reaches altitude 10° 21:40:29 10° 318° (NW) 5,239 13.7 -25.4°
Enters shadow 21:52:07 41° 12° (NNE) 2,277 11.4 -27.0°
Maximum altitude 21:52:50 42° 22° (NNE) 2,196 - -27.1°
Drops below altitude 10° 21:59:54 10° 90° (E) 3,029 - -28.1°
Sets 22:02:12 0° 98° (E) 3,730 - -28.4°
